Dewpoint
28 27 27 29 28 26 27 28 31 34 37 37 38 39 38 39 40 39 34 31 30 27
31 33 31 30 30 27 29 26 30 34 36 39 38 39 41 36 35 32 31 30 28 26
31 32 32 31 29 29 30 30 31 32 33 35 36 37 34 32 32 31 29 24 27 27
31 31 31 30 29 29 31 30 29 30 32 31 31 31 31 32 32 27 27 28 28 26
32 30 29 29 28 30 30 30 30 31 30 29 29 29 28 28 26 26 26 27 26 25
29 30 29 29 30 29 29 30 31 30 30 29 31 30 29 26 26 28 28 26 27 26
29 30 30 30 30 29 28 30 30 30 29 30 27 24 24 24 26 27 28 29 25 22
29 30 29 30 30 29 30 29 29 29 31 32 29 24 28 28 28 26 25 24 20 20
28 27 28 29 30 29 28 27 27 27 28 32 28 31 28 24 24 22 21 21 20 19
26 25 28 27 25 25 27 28 27 26 26 30 30 29 24 22 21 23 23 21 18 16
24 24 24 24 24 25 28 27 26 25 26 27 27 26 22 21 23 24 22 20 19 18
20 20 21 22 23 25 27 27 26 25 24 24 26 24 21 20 24 24 22 21 19 17
20 20 20 22 23 25 27 26 25 25 25 24 28 23 21 20 25 25 24 21 19 19
20 21 23 25 26 26 27 28 31 29 28 28 27 26 22 20 23 25 23 20 20 20
Lifted_Index
9 10 11 12 12 12 12 12 12 11 10 9 9 9 9 10 10 10 11 11 11 11
10 11 11 12 12 12 12 12 12 11 10 9 9 9 9 10 10 10 11 10 10 9
11 11 11 12 12 12 12 12 11 11 10 10 9 9 10 10 10 10 10 9 8 8
11 11 11 12 12 12 12 12 11 11 10 10 10 10 10 10 10 9 9 8 7 6
10 11 11 11 12 12 11 11 11 11 10 10 10 10 10 10 9 8 7 6 5 5
10 10 11 11 11 11 11 11 11 10 10 10 10 11 11 10 9 7 6 5 5 5
10 10 10 11 11 11 11 11 10 10 10 10 11 11 10 9 8 6 5 5 5 6
10 10 10 10 11 11 11 11 10 10 10 10 10 11 10 9 7 6 6 6 6 7
10 10 10 10 11 11 11 11 10 10 10 10 10 10 10 9 7 6 6 6 7 7
10 10 11 11 11 11 10 10 10 10 10 10 10 9 9 8 7 6 6 7 8 8
11 11 11 11 11 10 10 10 10 10 10 10 10 9 8 7 7 6 7 7 8 8
11 11 11 11 11 10 10 10 10 10 10 10 9 8 8 7 6 7 7 8 9 9
12 12 11 11 11 10 10 10 10 10 10 10 9 8 7 7 7 7 8 8 9 9
12 12 12 11 11 10 10 10 9 9 10 9 9 8 7 7 7 7 8 8 9 9